Terminal Aerodrome Forecast
Issued by NWS Dodge City, KS

Home | Current Version | Previous Version | Text Only | Print | Product List | Glossary On
Versions: 1 2 3 4 5 6 7 8 9 10 11 12 13 14 15 16 17 18 19 20 21 22 23 24 25 26 27 28 29
000
FTUS43 KDDC 020547 RRA
TAFDDC
TAF
KDDC 020547Z 0206/0224 09006KT P6SM SCT120
     FM020700 08010KT P6SM VCTS BKN080CB
     FM021000 06008KT 5SM BR SCT007
      TEMPO 0210/0213 2SM BR BKN005
     FM021500 VRB06KT P6SM SCT015=

USA.gov is the U.S. government's official web portal to all federal, state and local government web resources and services.